Regional Weather Roundup
Issued by NWS

Home | Current Version | Previous Version | Text Only | Print | Product List | Glossary Off
Versions: 1 2 3 4 5 6 7 8 9 10 11 12 13 14 15 16 17 18 19 20 21 22 23 24 25 26 27

000
ASUS45 KSLC 191010
RWRUT

UTAH REGIONAL WEATHER ROUNDUP
NATIONAL WEATHER SERVICE SALT LAKE CITY UT
300 AM MST SUN NOV 19 2017

UTZ001>011-023>025-191100-

NORTHERN UTAH

CITY           SKY/WX    TMP DP  RH WIND       PRES   REMARKS
BRIGHAM CITY   MOCLDY    26  23  89 CALM      30.34S
HILL AFB       MOCLDY    26  18  70 E17       30.30F WCI  13
LOGAN          MOCLDY    23  19  85 NW3       30.33F
OGDEN          MOCLDY    27  19  72 S8        30.31F WCI  19
SALT LAKE CITY MOCLDY    31  24  75 SE7       30.32F WCI  24
TOOELE VALLEY  MOCLDY    27  23  86 S7        30.33S WCI  19
WENDOVER       MOCLDY    24  19  81 CALM      30.32S
HEBER CITY       N/A     19  18  93 CALM      30.32S
WEST JORDAN    MOCLDY    28  24  83 S3        30.32F

$$

UTZ011>015-024>027-191100-

CENTRAL/NORTHEAST UTAH

CITY           SKY/WX    TMP DP  RH WIND       PRES   REMARKS
PROVO AIRPORT  PTCLDY    27  20  75 S5        30.34F WCI  22
MOAB/CANYONLAN PTCLDY    23   5  46 CALM      30.37S
DELTA          CLOUDY    19  16  86 CALM      30.32S
PRICE          CLEAR     20   6  55 N8        30.35F WCI  10
RICHFIELD      CLEAR     18  18 100 CALM      30.36S
ROOSEVELT      CLOUDY    18  12  79 W6        30.39S WCI   9
VERNAL         CLOUDY    19   9  65 CALM      30.36F

$$

UTZ013>016-019>022-027-191100-

SOUTHERN UTAH

CITY           SKY/WX    TMP DP  RH WIND       PRES   REMARKS
BRYCE CANYON   PTCLDY     7   3  84 SW6       30.34F WCI  -3
CEDAR CITY     PTCLDY    18  16  92 CALM      30.28S
MILFORD        MOCLDY    13   9  84 S5        30.31S WCI   5
ST GEORGE      MOSUNNY   37   7  28 CALM      30.30F
HANKSVILLE     MOCLDY    14  -2  48 CALM      30.42S
KANAB          CLEAR     28  10  47 N12       30.35F WCI  18
BLANDING         N/A     21   5  49 W3        30.42S

$$

REGIONAL REPORTS     COLORADO/ARIZONA

CITY           SKY/WX    TMP DP  RH WIND       PRES   REMARKS
CRAIG, CO      CLOUDY    11   6  81 SW3       30.36S
GRAND JUNCTION CLOUDY    18  14  84 E3        30.38F
RIFLE, CO      CLOUDY    19  15  84 CALM      30.41S
MONTROSE, CO   CLOUDY    20  15  81 S6        30.41S WCI  12
CORTEZ, CO     CLOUDY    12   8  84 E5        30.37S WCI   4
COLORADO CITY    N/A     41   9  26 NE12G18   30.31S
PAGE, AZ       PTCLDY    32   8  36 CALM      30.34F
GRAND CANYON   PTCLDY    32  -1  24 E6        30.30S WCI  26
KINGMAN, AZ    PTCLDY    32   6  33 E6        30.21S WCI  26
FLAGSTAFF, AZ  MOCLDY    12  -1  56 CALM      30.31F

$$

REGIONAL REPORTS    NEVADA/IDAHO/WYOMING

CITY           SKY/WX    TMP DP  RH WIND       PRES   REMARKS
LAS VEGAS, NV  MOCLDY    44  13  28 CALM      30.21F
ELY, NY        MOCLDY    17   5  59 S14       30.27F WCI   3
ELKO, NV       MOCLDY    23  18  81 E5        30.26F WCI  17
POCATELLO, ID  CLOUDY    24  21  88 N7        30.30S WCI  16
BURLEY, ID     PTCLDY    24  20  84 E6        30.25F WCI  17
FORT BRIDGER,    N/A     19   9  63 S5        30.30F WCI  13
EVANSTON, WY   CLOUDY    18  16  92 S6        30.27F WCI  10
ROCK SPRINGS,  CLOUDY    12   6  77 SW3       30.28F

$$




USA.gov is the U.S. government's official web portal to all federal, state and local government web resources and services.